Location: Oteiza
(42.6167°N, 1.9500°W)
Time: 22:50:36
(UTC+02:00)

ISS - Visible Passes

Search period start: 21 May 2018 00:00
Search period end: 31 May 2018 00:00
Orbit: 402 x 407 km, 51.6° (Epoch: 22 May)

Date Brightness Start Highest point End Pass type
(mag) Time Alt. Az. Time Alt. Az. Time Alt. Az.
21 May -1.8 00:42:54 10° W 00:45:49 29° NNW 00:48:45 10° NE visible
21 May -0.8 02:20:51 10° NW 02:23:04 17° N 02:25:16 10° NE visible
21 May -1.5 03:57:33 10° NW 04:00:21 25° NNE 04:03:08 10° ENE visible
21 May -3.9 05:33:49 10° WNW 05:37:03 64° SW 05:40:17 10° SE visible
21 May -2.8 22:14:26 10° SSW 22:17:11 25° SE 22:19:56 10° ENE visible
21 May -2.6 23:50:23 10° W 23:53:32 43° NNW 23:56:41 10° NE visible
22 May -0.9 01:28:17 10° NW 01:30:37 18° N 01:32:57 10° NE visible
22 May -1.1 03:05:27 10° NW 03:07:58 20° NNE 03:10:29 10° ENE visible
22 May -3.6 04:41:38 10° NW 04:44:53 69° NNE 04:48:08 10° ESE visible
22 May -3.7 22:58:02 10° WSW 23:01:17 74° NNW 23:04:34 10° NE visible
23 May -1.1 00:35:38 10° WNW 00:38:11 21° NNW 00:40:44 10° NE visible
23 May -0.8 02:13:13 10° NW 02:15:31 17° N 02:17:50 10° NE visible
23 May -2.5 03:49:31 10° NW 03:52:38 41° NNE 03:55:46 10° E visible
23 May -2.9 05:26:12 10° WNW 05:29:01 27° SW 05:31:48 10° SSE visible
23 May -3.8 22:05:53 10° SW 22:09:06 60° SE 22:12:20 10° ENE visible
23 May -1.5 23:42:58 10° W 23:45:47 26° NNW 23:48:37 10° NE visible
24 May -0.8 01:20:51 10° NW 01:23:04 17° N 01:25:16 10° NE visible
24 May -1.8 02:57:25 10° NW 03:00:17 28° NNE 03:00:17 28° NNE visible
24 May-0.804:40:47SE04:40:47SE04:32:43WNWvisible
24 May -2.2 22:50:21 10° W 22:53:26 37° NNW 22:56:31 10° NE visible
25 May -0.8 00:28:18 10° NW 00:30:34 17° N 00:32:50 10° NE visible
25 May -1.3 02:05:17 10° NW 02:07:54 22° NNE 02:08:16 21° NNE visible
25 May -1.0 23:35:38 10° WNW 23:38:06 19° NNW 23:40:34 10° NE visible
26 May -1.0 01:13:04 10° NW 01:15:27 18° N 01:17:10 13° NE visible
26 May -1.0 02:49:18 10° NW 02:49:46 13° NW 02:49:46 13° NW visible
26 May -1.3 22:42:55 10° WNW 22:45:38 24° NNW 22:48:22 10° NE visible
27 May -0.9 00:20:43 10° NW 00:22:57 17° N 00:25:10 10° NE visible
27 May -1.5 01:57:10 10° NW 01:58:55 24° NNW 01:58:55 24° NNW visible
27 May -0.9 23:28:11 10° NW 23:30:25 17° N 23:32:39 10° NE visible
28 May -1.6 01:05:01 10° NW 01:07:44 23° NNE 01:08:11 23° NNE visible
28 May -1.0 22:35:31 10° NW 22:37:54 18° N 22:40:17 10° NE visible
29 May -1.2 00:12:47 10° NW 00:15:14 19° N 00:17:29 11° ENE visible
29 May -1.3 01:48:59 10° NW 01:50:06 19° NW 01:50:06 19° NW visible
29 May -1.0 23:20:27 10° NW 23:22:43 17° N 23:24:58 10° NE visible
30 May -2.2 00:56:47 10° NW 00:59:26 35° N 00:59:26 35° N visible
30 May -1.0 22:27:56 10° NW 22:30:08 17° N 22:32:22 10° NE visible
